Vertical_Velocity
3 -4 -1 -1 1 1 0 -0 0 0 -0 -0 1 2 1 1 0 -2 1 -0 -1 1 -0 -1 1 -2 0 -1 -1 -1 -1 1 1
3 2 3 1 -1 -1 0 -0 1 1 1 0 1 1 1 -0 1 -3 2 -0 0 -1 0 0 -1 -1 -1 -0 -2 -0 -1 -0 1
-0 3 3 -1 -0 -1 -1 0 1 3 1 1 2 0 1 1 1 -1 1 -0 -1 1 -1 1 -1 -1 -0 -1 -2 1 -1 -0 -1
2 -3 2 3 -2 -0 -2 -3 -1 2 2 2 1 2 1 1 0 -0 2 1 -1 -0 -0 2 -0 -0 -0 -1 -1 -3 0 0 -1
-8 -0 -3 -1 0 -1 0 -1 -3 -2 -2 1 1 0 2 0 1 -0 -1 0 1 0 3 1 2 2 0 -1 1 -1 -1 1 -1
0 -2 -0 -4 0 -0 1 1 2 -1 -1 -2 1 0 1 2 2 -0 -1 -0 -0 4 0 2 2 2 2 1 0 0 0 1 -3
1 1 0 0 -2 0 1 -0 -1 3 -1 -5 -3 0 2 0 3 2 -0 -0 -1 1 0 0 1 1 1 1 1 -0 0 0 -2
0 1 1 -0 -4 1 -1 -2 1 3 -2 1 -2 -3 0 1 2 1 0 -0 -1 -3 3 1 1 1 0 0 -0 2 -0 2 -2
-2 0 0 0 -6 -2 2 -3 -2 0 -2 -2 -2 0 -1 -1 3 1 0 2 1 -4 -3 0 1 1 2 2 -0 3 3 -0 -1
-1 -1 -3 -7 -2 -3 1 5 6 -1 -3 -2 1 -3 2 0 1 0 1 2 3 -2 0 -6 2 1 -1 1 1 1 3 0 -0
0 -1 -4 -8 2 7 35 3 -0 10 -1 -3 -3 1 -1 -1 3 -0 3 1 1 1 -1 -8 -0 1 -1 0 2 3 1 -1 -1
1 0 0 -3 -5 75 8 91 24 6 -2 -0 -1 -2 2 4 1 2 2 3 1 0 -1 -5 -3 -1 1 1 0 1 3 3 2
-3 -1 0 -0 -4 -0 -8 29 3 3 11 4 5 1 -2 4 4 2 0 0 3 1 -0 -2 1 2 1 1 0 1 2 3 -3
-1 -2 -0 1 2 -1 -2 -9 7 1 7 3 2 0 -5 1 -0 7 1 1 1 2 3 1 0 0 0 1 2 1 3 -0 -0
-2 0 -2 -0 4 5 -2 8 -7 96 42 7 22 -9 2 1 3 6 -3 1 2 2 2 1 2 2 2 2 1 1 0 2 0
-3 -0 -2 -3 1 8 -1 10 -4 -28 30 65 20 -3 5 1 -4 3 1 2 3 2 1 3 1 2 2 1 1 2 2 2 1
-1 -2 -2 -2 0 8 -2 9 -2 3 5 1 -1 15 12 10 -2 5 1 1 -1 2 1 3 2 -1 2 4 0 -2 2 2 -0
1 -3 0 -0 0 3 3 -4 8 0 5 -6 -0 18 -7 23 -7 11 2 4 3 -1 1 2 0 -1 -1 3 0 1 3 1 0
-1 -1 -1 -0 -1 2 3 6 2 8 4 8 3 18 15 56 -6 7 1 0 -1 -1 1 4 2 -1 -2 -2 5 -1 1 1 2
-4 0 -0 0 1 2 2 2 4 -5 10 7 6 7 34 16 30 21 10 -3 -1 0 2 1 2 2 0 3 1 1 -0 -2 0
Height
5833 5834 5836 5838 5839 5839 5841 5842 5842 5843 5844 5845 5847 5849 5851 5853 5855 5856 5857 5860 5861 5861 5863 5865 5868 5870 5872 5874 5876 5877 5878 5880 5880
5828 5830 5831 5833 5833 5834 5836 5837 5838 5839 5841 5842 5843 5845 5848 5850 5852 5853 5856 5857 5859 5860 5862 5863 5866 5869 5871 5873 5875 5876 5877 5879 5880
5823 5824 5825 5827 5829 5830 5831 5832 5834 5836 5837 5837 5839 5841 5844 5846 5848 5851 5853 5855 5856 5858 5861 5862 5864 5866 5869 5871 5873 5875 5876 5877 5879
5816 5818 5819 5821 5823 5824 5826 5827 5828 5831 5832 5834 5836 5837 5840 5842 5845 5847 5849 5851 5853 5855 5857 5859 5861 5863 5867 5868 5870 5872 5875 5876 5877
5808 5811 5813 5815 5816 5817 5819 5821 5822 5825 5827 5829 5831 5834 5836 5838 5841 5843 5846 5848 5850 5851 5853 5856 5857 5860 5863 5865 5868 5870 5872 5874 5875
5799 5801 5804 5806 5809 5809 5811 5813 5815 5818 5820 5822 5826 5829 5831 5834 5837 5840 5841 5844 5846 5847 5849 5850 5853 5857 5859 5861 5864 5867 5869 5871 5872
5789 5791 5793 5796 5799 5801 5803 5805 5807 5811 5814 5816 5819 5822 5826 5829 5832 5834 5836 5839 5841 5843 5844 5846 5848 5851 5854 5857 5860 5863 5866 5868 5869
5780 5781 5784 5787 5789 5791 5793 5796 5798 5802 5805 5807 5811 5815 5818 5822 5826 5829 5831 5833 5836 5837 5839 5842 5843 5844 5848 5852 5855 5859 5861 5863 5865
5769 5772 5774 5777 5780 5782 5782 5786 5788 5791 5794 5797 5801 5806 5810 5815 5818 5820 5823 5827 5830 5831 5833 5837 5840 5842 5843 5846 5849 5853 5857 5859 5860
5757 5760 5764 5769 5767 5772 5772 5774 5776 5781 5785 5788 5792 5796 5801 5806 5810 5813 5815 5819 5823 5825 5827 5832 5835 5837 5840 5841 5845 5848 5851 5853 5856
5744 5748 5751 5756 5755 5758 5763 5761 5762 5768 5773 5778 5781 5787 5791 5796 5801 5804 5807 5812 5814 5817 5820 5826 5830 5832 5835 5836 5840 5843 5846 5848 5851
5729 5734 5737 5742 5745 5737 5748 5734 5740 5754 5759 5765 5770 5775 5782 5786 5790 5794 5799 5803 5807 5809 5810 5816 5822 5826 5829 5831 5835 5838 5841 5844 5847
5711 5717 5723 5726 5731 5733 5737 5734 5740 5746 5749 5753 5759 5763 5769 5775 5781 5784 5788 5794 5798 5802 5804 5806 5813 5818 5821 5824 5829 5833 5836 5839 5840
5692 5699 5706 5711 5714 5718 5723 5727 5729 5733 5738 5742 5746 5751 5754 5762 5769 5775 5778 5783 5789 5793 5797 5800 5806 5809 5814 5818 5822 5827 5830 5832 5835
5671 5679 5686 5693 5697 5701 5709 5713 5718 5713 5724 5729 5732 5736 5742 5746 5755 5764 5768 5772 5778 5784 5789 5793 5799 5802 5806 5811 5815 5818 5823 5826 5829
5649 5657 5665 5674 5678 5683 5692 5695 5706 5706 5709 5718 5718 5726 5730 5733 5739 5752 5756 5760 5767 5774 5779 5785 5790 5795 5798 5803 5807 5810 5814 5817 5821
5625 5634 5643 5653 5659 5663 5673 5677 5688 5695 5700 5707 5710 5708 5714 5720 5725 5737 5746 5751 5756 5763 5769 5775 5781 5786 5789 5794 5799 5802 5806 5809 5812
5601 5611 5620 5630 5638 5644 5650 5660 5671 5679 5688 5695 5699 5698 5703 5708 5714 5724 5732 5740 5747 5751 5758 5765 5770 5775 5781 5785 5789 5793 5797 5801 5805
5576 5586 5596 5606 5616 5624 5631 5641 5651 5662 5673 5682 5688 5690 5693 5696 5706 5712 5716 5728 5736 5741 5747 5754 5760 5765 5770 5776 5780 5784 5789 5793 5797
5549 5560 5571 5582 5592 5601 5609 5620 5633 5640 5655 5665 5675 5683 5683 5691 5695 5701 5706 5713 5723 5730 5735 5743 5749 5754 5760 5766 5770 5775 5779 5784 5789